Regional Weather Roundup
Issued by NWS Midland/Odessa, TX

Skip options and go directly to product.
Home | Oldest Version | Next Version | Current Version | All | Text Only | Save Text | Print | Product List | Glossary On

Skip product version selection by date and time.   
916
ASUS44 KMAF 280202
RWRMAF
MIDLAND AREA WEATHER ROUNDUP
NATIONAL WEATHER SERVICE MIDLAND TX
900 PM CDT SUN JUL 27 2014

...IN SOUTHWEST TEXAS AND SOUTHEAST NEW MEXICO...

CITY           SKY/WX    TMP DP  RH WIND       PRES   REMARKS
ALPINE         MOCLDY    84  58  41 SE16      30.20R
ANDREWS        FAIR      92  57  30 SE13      30.07R
ARTESIA        CLEAR     93  50  22 E13G20    30.06R
BIG SPRING     PTCLDY    94  54  25 E18G24    30.06R
CARLSBAD       MOCLDY    97  49  19 E12       30.02R
DRYDEN           N/A     96  56  26 E15       29.99R
FORT STOCKTON  MOCLDY    90  59  35 SE18G29   30.05R
GUAD PASS      MOCLDY    86  48  26 E23         N/A
HOBBS          CLEAR     91  52  25 E12       30.11R
MARFA          MOCLDY    82  55  39 E21       30.19R
MIDLAND AIRPK  CLEAR     95  56  27 SE9       30.05R
MIDLAND INTL   CLEAR     94  57  28 SE14      30.04R
ODESSA         CLEAR     94  56  27 SE13      30.05R
PECOS          MOCLDY    97  56  25 E18       29.97R
PRESIDIO       FAIR      96  58  28 NE15G24   29.97R
SEMINOLE       CLEAR     91  52  26 E10       30.09S
SNYDER         PTCLDY    93  58  29 SE9       30.05S
WINK           PTCLDY    97  55  24 SE16G23   29.99R
$$
...OTHER STATIONS IN TEXAS...

CITY           SKY/WX    TMP DP  RH WIND       PRES   REMARKS
ABILENE        CLEAR     92  60  34 SE10      30.02R
AMARILLO       PTCLDY    83  67  58 E21G26    30.19R
AUSTIN         PTCLDY    91  68  46 S13       29.98R
BROWNSVILLE    CLEAR     83  76  79 SE13      30.01R
CORPUS CHRISTI CLEAR     83  74  74 SE17      30.01R
DALLAS FTW     PTCLDY    94  65  38 S8        29.96R
DEL RIO        CLEAR     97  61  30 E10       29.92R
EL PASO        PTCLDY    94  49  21 CALM      30.03S
HOUSTON INT    PTCLDY    87  74  64 S6        30.02R
LUBBOCK        PTCLDY    87  56  34 E7        30.10R
SAN ANGELO     PTCLDY    94  56  27 E12       30.01R
SAN ANTONIO    PTCLDY    91  69  48 SE17      30.00R
WACO           CLEAR     89  67  47 SE7       29.99R
WICHITA FALLS  NOT AVBL
$$
...OTHER LOCATIONS IN NEW MEXICO...

CITY           SKY/WX    TMP DP  RH WIND       PRES   REMARKS
ALAMAGORDO     PTCLDY    93  39  15 E15G23    30.09R
ALBUQUERQUE    MOCLDY    75  55  49 N13       30.25R
CANNON AFB     CLEAR     85  55  36 SE7       30.19R
CLOVIS         NOT AVBL
HOLLOMAN AFB   PTCLDY    94  42  16 N12       30.06R
ROSWELL        CLEAR     93  49  22 E9        30.09R
RUIDOSO        PTCLDY    77  37  24 E7        30.38R
SANTA FE       LGT RAIN  68  60  75 NE6       30.32S
TRUTH OR CONSE PTCLDY    93  37  14 S15       30.11R
TUCUMCARI      MOCLDY    83  61  47 NE24G33   30.17R
$$

USA.gov is the U.S. government's official web portal to all federal, state and local government web resources and services.